QPF
0.02 0.02 0.02 0.03 0.03 0.02 0.02 0.01 0.01 0.02 0.02 0.02 0.02 0.03 0.04 0.05 0.06 0.04 0.02 0.02 0.01 0.01 0.02 0.06 0.08 0.08 0.15 0.21 0.10 0.10 0.18 0.17 0.10 0.07 0.05 0.03 0.02 0.01 0.03 0.04 0.04 0.04 0.03 0.02 0.03 0.04 0.04 0.04 0.04
0.01 0.02 0.04 0.03 0.03 0.03 0.04 0.02 0.02 0.02 0.02 0.02 0.02 0.02 0.03 0.04 0.04 0.03 0.02 0.03 0.02 0.01 0.02 0.03 0.06 0.09 0.18 0.25 0.11 0.12 0.20 0.19 0.13 0.07 0.05 0.04 0.03 0.02 0.03 0.03 0.05 0.07 0.08 0.06 0.05 0.04 0.04 0.04 0.04
0.01 0.03 0.03 0.02 0.01 0.01 0.04 0.04 0.04 0.03 0.03 0.02 0.02 0.01 0.02 0.03 0.03 0.02 0.01 0.02 0.02 0.02 0.02 0.03 0.06 0.08 0.13 0.24 0.28 0.27 0.25 0.18 0.11 0.07 0.05 0.04 0.04 0.03 0.04 0.03 0.04 0.06 0.08 0.10 0.08 0.06 0.04 0.04 0.05
0.02 0.02 0.02 0.01 0.00 0.00 0.02 0.05 0.05 0.06 0.07 0.04 0.03 0.01 0.01 0.01 0.01 0.02 0.01 0.01 0.02 0.02 0.02 0.02 0.07 0.08 0.10 0.15 0.22 0.24 0.20 0.13 0.10 0.06 0.05 0.05 0.04 0.03 0.03 0.03 0.03 0.03 0.03 0.04 0.06 0.05 0.04 0.04 0.05
0.02 0.02 0.01 0.00 0.00 0.01 0.03 0.04 0.05 0.08 0.09 0.05 0.03 0.01 0.01 0.01 0.02 0.02 0.01 0.01 0.01 0.01 0.01 0.02 0.07 0.08 0.08 0.09 0.10 0.11 0.11 0.09 0.09 0.07 0.06 0.06 0.05 0.04 0.02 0.03 0.02 0.02 0.02 0.03 0.06 0.06 0.03 0.04 0.05
0.02 0.01 0.01 0.00 0.00 0.01 0.01 0.03 0.04 0.06 0.06 0.04 0.02 0.01 0.01 0.01 0.02 0.01 0.01 0.01 0.01 0.01 0.01 0.02 0.06 0.08 0.08 0.09 0.08 0.06 0.07 0.06 0.08 0.09 0.07 0.05 0.05 0.03 0.02 0.02 0.02 0.02 0.01 0.03 0.04 0.03 0.03 0.05 0.08
0.02 0.01 0.01 0.01 0.01 0.01 0.01 0.02 0.03 0.04 0.02 0.01 0.01 0.01 0.02 0.03 0.03 0.01 0.01 0.01 0.02 0.02 0.01 0.02 0.04 0.06 0.07 0.07 0.07 0.06 0.05 0.04 0.06 0.07 0.06 0.03 0.03 0.04 0.04 0.04 0.03 0.02 0.02 0.02 0.03 0.03 0.05 0.07 0.08
0.02 0.01 0.01 0.01 0.01 0.01 0.02 0.02 0.03 0.03 0.03 0.01 0.00 0.00 0.02 0.02 0.02 0.02 0.01 0.01 0.02 0.03 0.02 0.02 0.02 0.02 0.02 0.04 0.07 0.07 0.06 0.04 0.03 0.04 0.04 0.02 0.03 0.03 0.04 0.03 0.03 0.02 0.02 0.03 0.03 0.04 0.06 0.07 0.07
0.02 0.01 0.01 0.00 0.01 0.01 0.01 0.02 0.02 0.03 0.02 0.01 0.00 0.00 0.00 0.00 0.00 0.01 0.00 0.00 0.01 0.02 0.02 0.01 0.02 0.02 0.01 0.02 0.06 0.05 0.03 0.02 0.02 0.02 0.01 0.01 0.01 0.01 0.02 0.03 0.03 0.03 0.04 0.04 0.03 0.05 0.07 0.06 0.06
0.03 0.02 0.01 0.01 0.01 0.01 0.02 0.02 0.02 0.02 0.03 0.01 0.01 0.00 0.00 0.00 0.01 0.01 0.01 0.01 0.01 0.02 0.02 0.02 0.02 0.01 0.01 0.02 0.03 0.03 0.02 0.02 0.01 0.01 0.00 0.00 0.00 0.01 0.02 0.03 0.04 0.04 0.05 0.04 0.04 0.06 0.04 0.04 0.03
0.03 0.02 0.01 0.01 0.01 0.01 0.01 0.01 0.02 0.01 0.01 0.01 0.02 0.01 0.01 0.01 0.01 0.02 0.02 0.01 0.00 0.02 0.03 0.03 0.03 0.03 0.02 0.02 0.03 0.02 0.02 0.01 0.01 0.01 0.00 0.00 0.00 0.01 0.01 0.01 0.02 0.02 0.02 0.02 0.02 0.02 0.01 0.01 0.02
0.04 0.04 0.02 0.01 0.01 0.01 0.01 0.01 0.02 0.02 0.01 0.02 0.02 0.02 0.03 0.02 0.02 0.02 0.02 0.02 0.01 0.02 0.04 0.05 0.04 0.05 0.04 0.04 0.03 0.02 0.01 0.01 0.01 0.01 0.00 0.00 0.01 0.01 0.00 0.00 0.01 0.01 0.01 0.01 0.01 0.00 0.00 0.01 0.01
0.04 0.04 0.02 0.02 0.02 0.02 0.02 0.02 0.02 0.01 0.01 0.01 0.02 0.03 0.03 0.03 0.02 0.02 0.03 0.03 0.03 0.04 0.04 0.04 0.05 0.04 0.04 0.04 0.04 0.04 0.03 0.02 0.02 0.01 0.01 0.01 0.01 0.01 0.01 0.01 0.02 0.02 0.01 0.01 0.01 0.01 0.00 0.00 0.00
0.04 0.04 0.04 0.04 0.02 0.02 0.02 0.02 0.01 0.01 0.01 0.01 0.02 0.03 0.03 0.03 0.03 0.04 0.04 0.05 0.05 0.06 0.05 0.05 0.04 0.05 0.05 0.05 0.06 0.08 0.06 0.03 0.03 0.02 0.02 0.02 0.02 0.02 0.02 0.03 0.02 0.01 0.01 0.02 0.01 0.02 0.02 0.01 0.01
0.04 0.04 0.06 0.05 0.03 0.02 0.01 0.02 0.01 0.01 0.01 0.01 0.02 0.03 0.04 0.03 0.03 0.05 0.05 0.06 0.07 0.07 0.07 0.07 0.07 0.07 0.06 0.05 0.06 0.07 0.07 0.05 0.03 0.03 0.03 0.03 0.03 0.04 0.04 0.03 0.02 0.01 0.01 0.02 0.02 0.03 0.03 0.03 0.02
0.04 0.04 0.04 0.05 0.03 0.02 0.02 0.02 0.01 0.01 0.01 0.01 0.01 0.02 0.02 0.02 0.02 0.03 0.06 0.08 0.09 0.08 0.09 0.09 0.08 0.08 0.07 0.05 0.03 0.03 0.04 0.03 0.03 0.02 0.01 0.02 0.02 0.03 0.04 0.03 0.02 0.01 0.01 0.02 0.02 0.01 0.01 0.02 0.02
0.04 0.03 0.02 0.03 0.03 0.03 0.02 0.01 0.01 0.01 0.01 0.01 0.01 0.01 0.01 0.01 0.02 0.03 0.04 0.05 0.07 0.09 0.10 0.11 0.12 0.11 0.11 0.08 0.05 0.03 0.02 0.02 0.02 0.02 0.02 0.01 0.01 0.02 0.03 0.03 0.02 0.01 0.01 0.01 0.02 0.01 0.01 0.01 0.01
0.04 0.03 0.03 0.03 0.03 0.03 0.02 0.01 0.01 0.01 0.01 0.01 0.02 0.01 0.01 0.01 0.01 0.02 0.03 0.04 0.05 0.06 0.08 0.10 0.11 0.13 0.15 0.13 0.09 0.05 0.03 0.02 0.01 0.01 0.02 0.01 0.01 0.01 0.02 0.02 0.02 0.02 0.01 0.01 0.01 0.01 0.01 0.01 0.02
0.04 0.04 0.03 0.03 0.03 0.02 0.01 0.01 0.01 0.01 0.02 0.02 0.02 0.01 0.01 0.01 0.01 0.02 0.02 0.03 0.04 0.04 0.04 0.05 0.07 0.10 0.14 0.16 0.14 0.08 0.06 0.04 0.02 0.01 0.01 0.01 0.01 0.01 0.01 0.01 0.01 0.01 0.01 0.00 0.00 0.00 0.01 0.01 0.03
0.04 0.03 0.03 0.03 0.03 0.02 0.01 0.02 0.02 0.01 0.01 0.01 0.02 0.02 0.01 0.01 0.01 0.02 0.02 0.02 0.03 0.04 0.03 0.03 0.04 0.06 0.09 0.09 0.12 0.12 0.12 0.09 0.06 0.04 0.01 0.01 0.01 0.01 0.01 0.01 0.01 0.01 0.01 0.01 0.00 0.01 0.01 0.01 0.01
0.05 0.03 0.03 0.03 0.02 0.02 0.02 0.02 0.02 0.01 0.00 0.01 0.02 0.02 0.01 0.01 0.01 0.01 0.02 0.02 0.02 0.02 0.03 0.04 0.03 0.04 0.06 0.08 0.10 0.12 0.11 0.08 0.06 0.05 0.03 0.02 0.02 0.02 0.02 0.01 0.01 0.01 0.00 0.00 0.01 0.01 0.02 0.02 0.02
0.04 0.03 0.02 0.02 0.02 0.01 0.02 0.02 0.01 0.00 0.00 0.01 0.01 0.01 0.02 0.01 0.01 0.01 0.02 0.02 0.02 0.02 0.03 0.04 0.03 0.02 0.03 0.05 0.07 0.10 0.10 0.06 0.04 0.03 0.02 0.03 0.03 0.02 0.02 0.02 0.01 0.01 0.00 0.00 0.00 0.00 0.01 0.02 0.03
0.01 0.01 0.01 0.01 0.01 0.00 0.00 0.01 0.01 0.01 0.01 0.01 0.00 0.01 0.02 0.02 0.02 0.02 0.02 0.01 0.02 0.02 0.02 0.02 0.02 0.02 0.02 0.03 0.05 0.07 0.09 0.09 0.07 0.05 0.04 0.03 0.03 0.02 0.02 0.02 0.01 0.01 0.00 0.00 0.00 0.00 0.01 0.01 0.02
0.00 0.01 0.01 0.01 0.01 0.00 0.00 0.00 0.01 0.01 0.01 0.01 0.01 0.01 0.02 0.02 0.02 0.01 0.01 0.01 0.02 0.01 0.01 0.01 0.02 0.01 0.01 0.03 0.05 0.06 0.06 0.08 0.08 0.06 0.05 0.04 0.04 0.02 0.03 0.03 0.02 0.01 0.00 0.00 0.00 0.00 0.01 0.01 0.01
0.00 0.01 0.01 0.01 0.01 0.00 0.00 0.00 0.01 0.01 0.01 0.01 0.01 0.01 0.01 0.01 0.01 0.01 0.01 0.01 0.01 0.01 0.01 0.01 0.02 0.02 0.02 0.03 0.04 0.06 0.08 0.09 0.08 0.07 0.05 0.04 0.05 0.04 0.04 0.05 0.04 0.02 0.01 0.00 0.01 0.01 0.01 0.01 0.01
0.00 0.00 0.01 0.01 0.01 0.01 0.01 0.01 0.01 0.01 0.01 0.01 0.01 0.01 0.01 0.01 0.00 0.00 0.01 0.01 0.01 0.01 0.01 0.01 0.02 0.02 0.03 0.03 0.05 0.06 0.11 0.13 0.12 0.11 0.10 0.07 0.05 0.05 0.05 0.06 0.06 0.04 0.02 0.01 0.01 0.01 0.01 0.01 0.01
0.00 0.00 0.00 0.01 0.00 0.00 0.01 0.02 0.02 0.01 0.01 0.01 0.01 0.01 0.01 0.01 0.01 0.01 0.01 0.01 0.01 0.01 0.01 0.01 0.02 0.02 0.03 0.03 0.05 0.07 0.10 0.14 0.14 0.12 0.09 0.07 0.07 0.06 0.06 0.06 0.07 0.06 0.05 0.04 0.03 0.02 0.01 0.01 0.02
0.01 0.01 0.01 0.01 0.01 0.01 0.01 0.01 0.01 0.01 0.01 0.01 0.01 0.01 0.01 0.01 0.00 0.00 0.01 0.01 0.00 0.00 0.01 0.01 0.01 0.01 0.02 0.02 0.03 0.06 0.08 0.09 0.10 0.07 0.07 0.08 0.09 0.08 0.07 0.06 0.05 0.05 0.06 0.06 0.05 0.04 0.03 0.02 0.02
0.00 0.01 0.01 0.01 0.00 0.00 0.00 0.01 0.01 0.00 0.00 0.00 0.00 0.01 0.01 0.00 0.01 0.01 0.01 0.01 0.01 0.01 0.01 0.01 0.01 0.01 0.01 0.02 0.02 0.03 0.04 0.06 0.06 0.05 0.06 0.07 0.08 0.09 0.08 0.07 0.07 0.07 0.06 0.05 0.04 0.04 0.05 0.04 0.03
0.00 0.01 0.01 0.01 0.00 0.00 0.00 0.00 0.00 0.00 0.00 0.00 0.00 0.00 0.01 0.01 0.01 0.01 0.01 0.02 0.03 0.03 0.03 0.02 0.01 0.01 0.01 0.01 0.01 0.01 0.03 0.04 0.05 0.05 0.06 0.06 0.06 0.07 0.06 0.07 0.08 0.07 0.06 0.05 0.05 0.05 0.04 0.02 0.03
MSLP
1009.88 1010.88 1011.97 1012.99 1013.81 1014.34 1014.52 1014.39 1014.02 1013.55 1013.10 1012.78 1012.64 1012.67 1012.83 1013.02 1013.16 1013.16 1013.00 1012.68 1012.26 1011.81 1011.43 1011.16 1011.06 1011.10 1011.24 1011.43 1011.60 1011.70 1011.72 1011.66 1011.57 1011.49 1011.45 1011.48 1011.58 1011.73 1011.90 1012.05 1012.16 1012.21 1012.22 1012.19 1012.16 1012.13 1012.13 1012.15 1012.18
1010.38 1011.49 1012.63 1013.62 1014.33 1014.68 1014.66 1014.31 1013.75 1013.13 1012.58 1012.20 1012.05 1012.11 1012.31 1012.55 1012.73 1012.78 1012.66 1012.39 1012.03 1011.66 1011.35 1011.17 1011.13 1011.23 1011.41 1011.61 1011.78 1011.88 1011.89 1011.83 1011.75 1011.69 1011.67 1011.73 1011.84 1011.99 1012.15 1012.28 1012.36 1012.39 1012.38 1012.35 1012.32 1012.31 1012.33 1012.38 1012.44
1010.96 1012.14 1013.26 1014.17 1014.73 1014.90 1014.67 1014.14 1013.43 1012.70 1012.09 1011.70 1011.57 1011.65 1011.88 1012.15 1012.36 1012.43 1012.34 1012.12 1011.82 1011.52 1011.30 1011.20 1011.24 1011.40 1011.61 1011.82 1011.98 1012.06 1012.05 1011.99 1011.92 1011.86 1011.87 1011.94 1012.06 1012.21 1012.35 1012.45 1012.50 1012.51 1012.48 1012.45 1012.44 1012.46 1012.51 1012.60 1012.69
1011.61 1012.79 1013.84 1014.61 1015.01 1014.99 1014.59 1013.91 1013.11 1012.33 1011.72 1011.35 1011.24 1011.36 1011.61 1011.89 1012.10 1012.17 1012.10 1011.91 1011.67 1011.45 1011.32 1011.30 1011.41 1011.61 1011.84 1012.04 1012.18 1012.23 1012.20 1012.12 1012.04 1012.00 1012.02 1012.11 1012.24 1012.39 1012.52 1012.60 1012.63 1012.62 1012.59 1012.56 1012.56 1012.61 1012.71 1012.84 1012.98
1012.27 1013.40 1014.33 1014.94 1015.16 1014.97 1014.43 1013.67 1012.83 1012.06 1011.49 1011.17 1011.11 1011.26 1011.51 1011.78 1011.97 1012.04 1011.97 1011.81 1011.63 1011.48 1011.42 1011.48 1011.65 1011.87 1012.10 1012.28 1012.38 1012.39 1012.32 1012.22 1012.14 1012.11 1012.15 1012.26 1012.41 1012.57 1012.70 1012.77 1012.80 1012.78 1012.74 1012.72 1012.75 1012.82 1012.96 1013.12 1013.32
1012.89 1013.91 1014.69 1015.13 1015.17 1014.84 1014.21 1013.41 1012.59 1011.88 1011.39 1011.14 1011.14 1011.31 1011.56 1011.80 1011.96 1012.01 1011.94 1011.81 1011.67 1011.59 1011.60 1011.72 1011.93 1012.16 1012.37 1012.52 1012.57 1012.53 1012.43 1012.31 1012.23 1012.22 1012.29 1012.43 1012.61 1012.79 1012.94 1013.02 1013.05 1013.03 1013.00 1012.99 1013.02 1013.12 1013.27 1013.47 1013.68
1013.38 1014.27 1014.88 1015.13 1015.02 1014.58 1013.91 1013.12 1012.37 1011.76 1011.36 1011.21 1011.25 1011.44 1011.68 1011.89 1012.01 1012.03 1011.96 1011.85 1011.77 1011.75 1011.82 1011.99 1012.21 1012.45 1012.63 1012.73 1012.74 1012.66 1012.54 1012.42 1012.36 1012.38 1012.49 1012.67 1012.89 1013.11 1013.27 1013.37 1013.40 1013.39 1013.36 1013.35 1013.40 1013.50 1013.66 1013.86 1014.07
1013.71 1014.44 1014.86 1014.95 1014.71 1014.19 1013.51 1012.78 1012.12 1011.63 1011.34 1011.27 1011.36 1011.56 1011.77 1011.95 1012.03 1012.03 1011.97 1011.89 1011.85 1011.89 1012.01 1012.22 1012.46 1012.69 1012.85 1012.92 1012.89 1012.80 1012.67 1012.57 1012.54 1012.61 1012.77 1013.00 1013.27 1013.51 1013.70 1013.81 1013.85 1013.84 1013.81 1013.81 1013.85 1013.94 1014.09 1014.28 1014.48
1013.82 1014.39 1014.65 1014.58 1014.23 1013.68 1013.02 1012.37 1011.82 1011.44 1011.26 1011.26 1011.39 1011.58 1011.77 1011.91 1011.97 1011.95 1011.90 1011.86 1011.87 1011.96 1012.13 1012.37 1012.62 1012.85 1013.00 1013.06 1013.03 1012.94 1012.84 1012.78 1012.80 1012.93 1013.14 1013.42 1013.72 1013.99 1014.20 1014.32 1014.36 1014.35 1014.32 1014.31 1014.34 1014.43 1014.56 1014.73 1014.89
1013.74 1014.15 1014.25 1014.06 1013.64 1013.07 1012.46 1011.89 1011.44 1011.17 1011.07 1011.12 1011.27 1011.46 1011.62 1011.73 1011.77 1011.76 1011.73 1011.73 1011.79 1011.93 1012.14 1012.41 1012.68 1012.91 1013.06 1013.13 1013.13 1013.08 1013.04 1013.04 1013.13 1013.32 1013.58 1013.90 1014.22 1014.50 1014.71 1014.83 1014.88 1014.87 1014.84 1014.83 1014.86 1014.94 1015.06 1015.20 1015.34
1013.50 1013.76 1013.73 1013.45 1012.99 1012.43 1011.86 1011.38 1011.02 1010.83 1010.79 1010.87 1011.02 1011.19 1011.33 1011.42 1011.45 1011.46 1011.46 1011.50 1011.61 1011.79 1012.04 1012.33 1012.61 1012.85 1013.03 1013.14 1013.19 1013.21 1013.24 1013.33 1013.49 1013.73 1014.05 1014.39 1014.72 1015.00 1015.20 1015.32 1015.36 1015.35 1015.33 1015.33 1015.37 1015.46 1015.58 1015.71 1015.84
1013.16 1013.31 1013.18 1012.83 1012.35 1011.81 1011.31 1010.89 1010.60 1010.46 1010.45 1010.53 1010.66 1010.81 1010.92 1011.00 1011.05 1011.08 1011.12 1011.21 1011.36 1011.57 1011.84 1012.14 1012.43 1012.70 1012.91 1013.07 1013.19 1013.30 1013.42 1013.59 1013.83 1014.13 1014.47 1014.83 1015.15 1015.42 1015.62 1015.72 1015.77 1015.78 1015.78 1015.81 1015.88 1015.98 1016.12 1016.27 1016.41
1012.81 1012.86 1012.67 1012.29 1011.81 1011.31 1010.85 1010.49 1010.24 1010.12 1010.10 1010.16 1010.26 1010.37 1010.47 1010.55 1010.61 1010.68 1010.76 1010.89 1011.07 1011.30 1011.58 1011.88 1012.18 1012.47 1012.72 1012.94 1013.14 1013.34 1013.56 1013.81 1014.11 1014.45 1014.82 1015.17 1015.48 1015.74 1015.93 1016.04 1016.11 1016.15 1016.19 1016.26 1016.37 1016.53 1016.71 1016.89 1017.04
1012.51 1012.50 1012.27 1011.89 1011.44 1010.98 1010.56 1010.23 1009.99 1009.85 1009.79 1009.80 1009.86 1009.93 1010.02 1010.11 1010.20 1010.31 1010.44 1010.60 1010.80 1011.04 1011.31 1011.60 1011.90 1012.20 1012.49 1012.77 1013.05 1013.33 1013.63 1013.96 1014.31 1014.68 1015.04 1015.39 1015.70 1015.95 1016.14 1016.28 1016.38 1016.47 1016.57 1016.70 1016.88 1017.08 1017.31 1017.53 1017.72
1012.31 1012.26 1012.03 1011.67 1011.26 1010.84 1010.45 1010.12 1009.86 1009.68 1009.56 1009.50 1009.49 1009.53 1009.61 1009.72 1009.85 1010.01 1010.18 1010.37 1010.58 1010.82 1011.07 1011.34 1011.63 1011.94 1012.26 1012.60 1012.94 1013.30 1013.67 1014.04 1014.43 1014.81 1015.17 1015.51 1015.81 1016.06 1016.28 1016.45 1016.61 1016.77 1016.94 1017.14 1017.38 1017.64 1017.92 1018.18 1018.42
1012.19 1012.14 1011.93 1011.62 1011.26 1010.89 1010.51 1010.17 1009.85 1009.59 1009.38 1009.24 1009.17 1009.17 1009.24 1009.38 1009.56 1009.77 1009.99 1010.21 1010.44 1010.67 1010.90 1011.15 1011.43 1011.74 1012.08 1012.46 1012.86 1013.27 1013.68 1014.09 1014.49 1014.87 1015.22 1015.55 1015.84 1016.12 1016.37 1016.60 1016.83 1017.07 1017.31 1017.58 1017.87 1018.18 1018.50 1018.80 1019.07
1012.13 1012.10 1011.94 1011.70 1011.41 1011.07 1010.70 1010.31 1009.92 1009.56 1009.24 1008.99 1008.85 1008.82 1008.89 1009.06 1009.30 1009.57 1009.85 1010.12 1010.36 1010.58 1010.80 1011.04 1011.31 1011.62 1011.99 1012.39 1012.83 1013.28 1013.72 1014.15 1014.54 1014.90 1015.24 1015.55 1015.86 1016.16 1016.45 1016.75 1017.06 1017.37 1017.68 1018.01 1018.34 1018.68 1019.01 1019.34 1019.62
1012.08 1012.09 1012.02 1011.86 1011.64 1011.33 1010.96 1010.51 1010.02 1009.53 1009.08 1008.73 1008.50 1008.43 1008.51 1008.72 1009.03 1009.38 1009.73 1010.05 1010.32 1010.56 1010.77 1011.00 1011.27 1011.60 1011.98 1012.42 1012.89 1013.36 1013.82 1014.24 1014.61 1014.95 1015.27 1015.57 1015.88 1016.21 1016.55 1016.92 1017.29 1017.67 1018.04 1018.41 1018.76 1019.10 1019.44 1019.76 1020.06
1011.97 1012.07 1012.10 1012.05 1011.90 1011.63 1011.23 1010.71 1010.11 1009.47 1008.88 1008.41 1008.10 1007.99 1008.08 1008.34 1008.72 1009.16 1009.59 1009.97 1010.29 1010.56 1010.79 1011.03 1011.31 1011.65 1012.06 1012.53 1013.02 1013.51 1013.97 1014.38 1014.73 1015.04 1015.33 1015.62 1015.93 1016.28 1016.67 1017.10 1017.53 1017.96 1018.37 1018.75 1019.10 1019.44 1019.75 1020.06 1020.36
1011.79 1012.01 1012.17 1012.24 1012.17 1011.93 1011.50 1010.89 1010.15 1009.37 1008.62 1008.02 1007.62 1007.47 1007.58 1007.89 1008.35 1008.88 1009.40 1009.86 1010.25 1010.56 1010.82 1011.09 1011.39 1011.76 1012.20 1012.69 1013.21 1013.71 1014.17 1014.57 1014.90 1015.18 1015.44 1015.71 1016.02 1016.39 1016.81 1017.27 1017.74 1018.20 1018.63 1019.01 1019.35 1019.66 1019.95 1020.23 1020.52
1011.53 1011.89 1012.21 1012.41 1012.43 1012.21 1011.74 1011.04 1010.17 1009.22 1008.32 1007.59 1007.10 1006.91 1007.02 1007.38 1007.92 1008.54 1009.16 1009.71 1010.16 1010.53 1010.84 1011.14 1011.47 1011.87 1012.34 1012.86 1013.41 1013.92 1014.39 1014.77 1015.08 1015.33 1015.57 1015.82 1016.12 1016.49 1016.93 1017.41 1017.91 1018.39 1018.82 1019.19 1019.51 1019.78 1020.03 1020.29 1020.57
1011.21 1011.75 1012.23 1012.57 1012.68 1012.49 1011.98 1011.18 1010.17 1009.07 1008.02 1007.15 1006.58 1006.35 1006.46 1006.86 1007.47 1008.18 1008.88 1009.51 1010.04 1010.46 1010.82 1011.15 1011.52 1011.95 1012.44 1012.99 1013.56 1014.09 1014.56 1014.94 1015.24 1015.48 1015.69 1015.92 1016.22 1016.58 1017.02 1017.51 1018.01 1018.49 1018.91 1019.27 1019.56 1019.80 1020.03 1020.27 1020.54
1010.88 1011.60 1012.25 1012.73 1012.92 1012.75 1012.21 1011.32 1010.19 1008.94 1007.75 1006.77 1006.12 1005.84 1005.95 1006.39 1007.05 1007.83 1008.60 1009.30 1009.89 1010.36 1010.75 1011.12 1011.50 1011.95 1012.47 1013.03 1013.61 1014.16 1014.65 1015.04 1015.33 1015.57 1015.77 1015.99 1016.27 1016.63 1017.06 1017.54 1018.04 1018.51 1018.93 1019.27 1019.54 1019.76 1019.97 1020.19 1020.45
1010.57 1011.46 1012.27 1012.87 1013.14 1013.00 1012.42 1011.47 1010.23 1008.87 1007.57 1006.49 1005.76 1005.45 1005.55 1006.00 1006.70 1007.53 1008.36 1009.10 1009.73 1010.23 1010.65 1011.03 1011.42 1011.88 1012.40 1012.97 1013.56 1014.13 1014.63 1015.03 1015.34 1015.58 1015.79 1016.01 1016.28 1016.63 1017.04 1017.51 1018.00 1018.46 1018.87 1019.20 1019.46 1019.67 1019.86 1020.07 1020.32
1010.26 1011.31 1012.26 1012.97 1013.30 1013.18 1012.60 1011.59 1010.28 1008.84 1007.46 1006.32 1005.54 1005.20 1005.28 1005.74 1006.46 1007.31 1008.17 1008.94 1009.59 1010.11 1010.53 1010.90 1011.29 1011.73 1012.24 1012.81 1013.41 1013.98 1014.49 1014.92 1015.25 1015.51 1015.73 1015.97 1016.24 1016.57 1016.98 1017.44 1017.91 1018.36 1018.76 1019.09 1019.36 1019.56 1019.75 1019.95 1020.18
1009.95 1011.12 1012.17 1012.96 1013.34 1013.25 1012.66 1011.64 1010.31 1008.83 1007.42 1006.25 1005.45 1005.09 1005.16 1005.61 1006.33 1007.19 1008.05 1008.83 1009.48 1010.00 1010.41 1010.77 1011.14 1011.55 1012.04 1012.60 1013.18 1013.76 1014.28 1014.73 1015.09 1015.38 1015.63 1015.87 1016.15 1016.49 1016.88 1017.33 1017.79 1018.23 1018.63 1018.97 1019.23 1019.45 1019.63 1019.83 1020.05
1009.59 1010.83 1011.94 1012.77 1013.19 1013.12 1012.56 1011.56 1010.24 1008.79 1007.40 1006.24 1005.45 1005.09 1005.16 1005.60 1006.31 1007.15 1008.00 1008.77 1009.41 1009.91 1010.31 1010.65 1010.99 1011.38 1011.84 1012.36 1012.93 1013.50 1014.03 1014.50 1014.89 1015.21 1015.48 1015.76 1016.05 1016.38 1016.77 1017.20 1017.65 1018.09 1018.49 1018.83 1019.11 1019.34 1019.53 1019.72 1019.93
1009.14 1010.39 1011.51 1012.35 1012.78 1012.74 1012.22 1011.27 1010.02 1008.65 1007.33 1006.23 1005.48 1005.15 1005.23 1005.66 1006.34 1007.15 1007.98 1008.73 1009.35 1009.84 1010.23 1010.55 1010.87 1011.24 1011.66 1012.16 1012.70 1013.25 1013.79 1014.26 1014.68 1015.03 1015.33 1015.63 1015.93 1016.27 1016.66 1017.08 1017.51 1017.94 1018.34 1018.69 1018.99 1019.23 1019.45 1019.64 1019.84
1008.58 1009.78 1010.85 1011.66 1012.09 1012.07 1011.60 1010.74 1009.60 1008.35 1007.15 1006.16 1005.49 1005.20 1005.29 1005.71 1006.37 1007.15 1007.94 1008.67 1009.28 1009.77 1010.15 1010.47 1010.79 1011.14 1011.54 1012.01 1012.53 1013.06 1013.58 1014.06 1014.49 1014.86 1015.19 1015.50 1015.82 1016.17 1016.55 1016.95 1017.38 1017.80 1018.20 1018.55 1018.86 1019.13 1019.36 1019.57 1019.77
1007.92 1009.02 1010.00 1010.73 1011.12 1011.11 1010.71 1009.96 1008.97 1007.87 1006.83 1005.97 1005.41 1005.18 1005.29 1005.70 1006.32 1007.06 1007.82 1008.53 1009.14 1009.64 1010.04 1010.38 1010.72 1011.07 1011.47 1011.92 1012.41 1012.92 1013.43 1013.90 1014.33 1014.71 1015.06 1015.39 1015.71 1016.06 1016.43 1016.83 1017.24 1017.65 1018.04 1018.40 1018.72 1019.01 1019.26 1019.48 1019.69
Thickness
5790 5789 5786 5773 5750 5730 5727 5736 5744 5746 5748 5754 5757 5753 5746 5741 5736 5733 5750 5759 5760 5759 5759 5760 5760 5760 5759 5759 5760 5760 5758 5757 5757 5756 5756 5756 5756 5756 5756 5756 5757 5757 5757 5757 5757 5757 5757 5757 5757
5789 5786 5776 5758 5732 5715 5724 5739 5742 5748 5753 5756 5755 5752 5746 5742 5746 5747 5751 5756 5758 5758 5757 5757 5757 5757 5757 5757 5758 5758 5755 5754 5754 5754 5754 5753 5753 5753 5753 5752 5753 5753 5754 5754 5753 5753 5754 5754 5754
5787 5782 5761 5742 5727 5719 5727 5741 5744 5752 5756 5754 5749 5749 5745 5742 5746 5748 5752 5755 5755 5755 5755 5755 5755 5754 5754 5754 5754 5754 5752 5752 5751 5751 5751 5751 5750 5750 5749 5749 5749 5749 5750 5750 5750 5749 5750 5750 5750
5779 5766 5752 5733 5726 5732 5737 5743 5747 5749 5751 5753 5748 5741 5745 5750 5750 5751 5754 5754 5753 5752 5752 5752 5751 5751 5750 5750 5750 5748 5747 5748 5749 5749 5749 5748 5747 5746 5745 5745 5745 5745 5746 5746 5746 5745 5745 5746 5746
5771 5752 5733 5722 5727 5737 5743 5748 5750 5745 5744 5746 5744 5737 5738 5748 5753 5753 5752 5751 5749 5749 5749 5749 5748 5748 5747 5746 5745 5744 5744 5744 5745 5746 5745 5744 5743 5742 5741 5741 5741 5741 5741 5741 5741 5741 5741 5741 5742
5752 5740 5719 5715 5725 5737 5744 5750 5748 5743 5742 5743 5741 5735 5736 5747 5749 5749 5749 5748 5747 5746 5746 5745 5745 5744 5743 5742 5742 5740 5740 5740 5740 5741 5740 5739 5738 5738 5737 5737 5737 5737 5737 5737 5737 5736 5737 5737 5737
5743 5730 5719 5720 5722 5730 5742 5749 5745 5741 5739 5741 5743 5732 5735 5742 5746 5747 5746 5745 5744 5743 5743 5742 5741 5740 5739 5739 5738 5737 5736 5736 5735 5735 5735 5734 5734 5733 5733 5733 5732 5732 5732 5733 5732 5732 5732 5732 5733
5748 5731 5720 5718 5721 5727 5742 5747 5747 5743 5740 5747 5744 5731 5731 5740 5744 5744 5742 5740 5740 5739 5739 5738 5737 5737 5736 5735 5734 5733 5732 5732 5731 5731 5730 5730 5729 5729 5728 5728 5728 5728 5728 5728 5728 5728 5728 5728 5728
5750 5722 5713 5720 5723 5730 5741 5741 5743 5747 5742 5741 5742 5740 5742 5744 5742 5738 5735 5734 5734 5734 5734 5734 5734 5733 5732 5731 5730 5729 5728 5728 5727 5727 5725 5724 5724 5724 5724 5724 5724 5723 5723 5723 5723 5723 5723 5723 5722
5738 5716 5724 5734 5735 5735 5738 5738 5738 5737 5732 5731 5734 5738 5741 5739 5736 5732 5730 5729 5728 5729 5730 5730 5730 5729 5728 5727 5726 5725 5724 5723 5723 5722 5721 5720 5719 5719 5719 5719 5719 5719 5718 5718 5718 5717 5717 5716 5716
5738 5726 5733 5738 5741 5740 5736 5735 5737 5730 5724 5728 5729 5731 5733 5732 5731 5729 5728 5727 5727 5726 5727 5727 5727 5726 5724 5723 5722 5720 5720 5719 5718 5717 5716 5715 5715 5714 5714 5713 5713 5713 5713 5713 5712 5712 5711 5711 5711
5735 5734 5737 5737 5741 5738 5734 5732 5728 5726 5727 5735 5736 5734 5731 5728 5726 5725 5724 5724 5725 5724 5724 5724 5724 5723 5721 5720 5718 5717 5716 5714 5714 5713 5712 5711 5710 5709 5708 5708 5708 5708 5708 5708 5707 5706 5706 5706 5705
5732 5732 5736 5737 5737 5735 5732 5727 5725 5724 5731 5733 5733 5729 5726 5723 5723 5724 5724 5722 5722 5720 5721 5721 5721 5719 5718 5716 5715 5713 5712 5711 5710 5709 5708 5707 5706 5705 5704 5703 5703 5703 5703 5703 5702 5701 5701 5701 5701
5732 5731 5730 5731 5731 5732 5726 5722 5722 5721 5726 5726 5725 5722 5721 5720 5720 5719 5719 5718 5718 5718 5718 5718 5718 5716 5714 5713 5711 5710 5709 5708 5706 5705 5704 5703 5702 5701 5700 5699 5698 5698 5698 5698 5697 5697 5696 5696 5696
5732 5723 5721 5723 5725 5726 5724 5712 5714 5719 5721 5718 5718 5717 5717 5717 5717 5716 5716 5716 5715 5715 5715 5715 5715 5713 5711 5709 5708 5707 5705 5704 5703 5702 5701 5700 5699 5698 5696 5695 5694 5694 5694 5693 5693 5692 5692 5691 5691
5721 5710 5702 5713 5719 5720 5714 5698 5709 5716 5714 5710 5711 5711 5711 5712 5713 5714 5714 5714 5714 5713 5712 5712 5712 5710 5708 5706 5705 5704 5703 5701 5700 5698 5697 5696 5695 5694 5693 5692 5690 5690 5689 5689 5688 5687 5686 5685 5685
5701 5692 5694 5702 5713 5713 5707 5697 5706 5711 5710 5706 5706 5706 5706 5707 5709 5711 5712 5712 5711 5710 5709 5708 5708 5706 5704 5703 5702 5700 5699 5698 5696 5695 5694 5692 5691 5690 5689 5688 5687 5685 5684 5684 5684 5682 5681 5680 5680
5690 5690 5691 5693 5704 5704 5697 5694 5700 5705 5705 5702 5701 5702 5702 5702 5705 5708 5709 5709 5709 5707 5706 5705 5704 5702 5700 5699 5698 5696 5694 5693 5692 5691 5690 5689 5688 5686 5685 5683 5682 5681 5680 5679 5678 5677 5677 5676 5675
5698 5692 5688 5693 5702 5697 5690 5690 5694 5699 5698 5697 5696 5697 5697 5700 5703 5705 5705 5706 5705 5703 5702 5701 5699 5698 5697 5695 5693 5691 5688 5687 5687 5686 5686 5685 5684 5683 5681 5679 5678 5677 5676 5674 5674 5673 5671 5670 5671
5695 5687 5686 5691 5698 5693 5685 5686 5692 5694 5694 5695 5694 5694 5695 5696 5698 5699 5700 5700 5700 5699 5698 5697 5696 5695 5694 5692 5690 5688 5686 5683 5682 5681 5680 5680 5679 5678 5677 5676 5674 5673 5672 5670 5670 5670 5667 5666 5666
5692 5687 5686 5685 5689 5688 5683 5678 5684 5690 5693 5693 5693 5693 5693 5694 5694 5695 5695 5696 5696 5695 5695 5695 5693 5692 5690 5689 5687 5685 5681 5679 5677 5675 5674 5675 5675 5674 5673 5672 5671 5670 5669 5667 5667 5666 5665 5662 5662
5684 5695 5692 5686 5675 5667 5674 5658 5675 5680 5683 5687 5688 5688 5690 5691 5692 5691 5691 5691 5692 5692 5693 5691 5690 5688 5687 5686 5684 5681 5676 5672 5672 5671 5670 5670 5670 5669 5669 5668 5667 5666 5665 5664 5664 5664 5663 5662 5659
5692 5696 5689 5682 5673 5663 5665 5657 5665 5675 5676 5681 5684 5686 5687 5688 5689 5688 5688 5689 5690 5689 5688 5687 5686 5684 5683 5682 5680 5678 5673 5670 5669 5668 5667 5665 5665 5665 5664 5663 5662 5661 5661 5661 5661 5660 5660 5660 5658
5695 5685 5676 5666 5660 5651 5659 5654 5657 5666 5674 5679 5683 5684 5685 5685 5685 5685 5686 5686 5686 5686 5684 5683 5681 5680 5679 5678 5676 5673 5670 5668 5665 5663 5662 5661 5660 5660 5660 5659 5658 5657 5657 5657 5657 5657 5657 5657 5656
5686 5667 5650 5647 5640 5644 5658 5654 5657 5674 5679 5680 5681 5681 5683 5683 5682 5681 5681 5681 5680 5680 5679 5678 5677 5675 5674 5673 5672 5670 5668 5666 5663 5661 5659 5657 5656 5656 5656 5655 5654 5654 5654 5654 5654 5654 5654 5653 5653
5678 5669 5647 5639 5636 5640 5653 5650 5663 5678 5681 5682 5681 5681 5680 5679 5678 5678 5677 5676 5676 5675 5674 5673 5671 5670 5669 5668 5667 5666 5664 5662 5660 5659 5657 5655 5654 5654 5653 5653 5652 5651 5651 5652 5651 5651 5651 5650 5650
5673 5663 5664 5647 5643 5638 5643 5654 5666 5677 5677 5677 5676 5676 5675 5675 5675 5674 5674 5672 5671 5670 5669 5669 5667 5666 5664 5663 5663 5661 5660 5659 5657 5656 5654 5652 5652 5651 5651 5650 5649 5649 5648 5648 5648 5647 5647 5647 5646
5678 5665 5650 5642 5634 5630 5639 5645 5651 5665 5669 5671 5671 5670 5671 5671 5670 5670 5669 5668 5667 5666 5665 5664 5663 5661 5661 5660 5658 5658 5656 5655 5654 5652 5650 5649 5649 5649 5647 5647 5646 5645 5645 5645 5644 5644 5643 5643 5643
5665 5659 5649 5638 5636 5628 5627 5640 5665 5666 5669 5667 5668 5668 5668 5667 5666 5666 5665 5664 5662 5661 5660 5658 5657 5656 5655 5655 5653 5653 5652 5651 5650 5648 5647 5646 5646 5645 5644 5642 5642 5642 5642 5641 5641 5640 5640 5639 5639
5669 5661 5649 5639 5634 5628 5625 5639 5670 5668 5667 5666 5664 5664 5665 5664 5663 5662 5661 5659 5657 5656 5655 5653 5652 5651 5650 5650 5649 5648 5647 5646 5645 5644 5643 5642 5641 5641 5640 5639 5638 5638 5637 5637 5637 5636 5636 5635 5634